Погода в Мироновке

Погода в Мироновке : погода сейчас, прогноз погоды и архив. Всё, что Вы хотите узнать о погоде в Мироновке!

Хотите узнать прогноз погоды в Мироновке? Тогда Вам сюда: Погода в Мироновке

Поиск расширенной информации на нашем сайте:

Другие новости

Новости СМИ2

Главная страница сайта

Новости сайта

02.10.2013

Напоминаем, что на нашем новом сайте вы можете получить высокодетализированные прогнозы погоды по пунктам России, СНГ и мира (включающие важные для авиации метеовеличины, такие как направление и скорость ветра, видимость, явления погоды, количество и форма облачности, нижняя и верхняя граница облачности), а также ознакомиться с разнообразными материалами по авиационной метеорологии и подборкой полезных ссылок на эту тему.

Сайт Метеоцентр.Азия посвящён разработке технологий оптимизации авиаметеорологического обслуживания, включая проектирование и перспективное создание нескольких автоматизированных авиаметеорологических систем:
- система выпуска высокодетальных прогностических карт явлений погоды для нижнего воздушного пространства по России и ближнему зарубежью;
- система верификации прогнозов TAF (выпускаемых синоптиками официальных АМСГ РФ и ближнего зарубежья) и AUTOTAF (выпускаемых сайтом Метеоцентр.Азия) - выявление ошибок, онлайн-сопоставление с фактической погодой METAR, автоматическое внесение коррективов в прогнозы при резком отклонении фактической погоды от прогноза, подсчёт оправдываемости прогнозов по элементам и в целом;
- система обработки, анализа и отображения авиаметеорологической информации для применения провайдерами метеорологической информации.

Рекомендуем: Интересует вакуумные банки от целлюлита отзывы? См. здесь!

Погода в Мироновке - сегодня

Время (UTC), дата Ветер
(°,м/с) 
Видим.   Явления Облачность Т
(°С)
Тd
(°С)
f(%) Тe
(°С)
Pmin
(гПа)
dP
(гПа)
Po
(мм)
O2
(г/м3)
Тmin Tmax R s Состояние
почвы
12 26.05.17 300 (СЗ) 9000 м  слаб. ливневой дождь  10/10 570 м кучево-дожд. 
[Cb cap]
+15.1 +13.5 90 +21  1014.4  0.3  747  283         
15 26.05.17 310 (СЗ) 9000 м  слаб. ливневой дождь  10/9 570 м кучево-дожд., средняя 
[Cb cap|Ac und]
+15.1 +12.9 87 +21  1013.6  -0.8  747  283           
18 26.05.17 тихо ()   9000 м  дымка{ливн. осадки}  10/10 300 м кучево-дожд. 
[Cb calv]
+15.1 +14 93 +22  1013.8  0.2  747  282    +22.2     
21 26.05.17 тихо ()   5000 м  дымка  10/10 600 м 
[Sc]
+14.5 +13.6 94 +21  1014.2  0.4  747  283    -1.5       
00 27.05.17 тихо ()   6000 м  дымка  10/0 средняя 
[Ac As]
+13.1 +12.2 94 +17  1014.3  747  285           
03 27.05.17 тихо ()   4000 м  дымка  10/3 600 м кучево-дожд., средняя 
[Cb calv|Ac As]
+13.1 +12 93 +17  1014.6  0.3  747  285           
09 27.05.17 310 (СЗ) 20000 м    10/8 630 м кучево-дожд., верхняя 
[Cb calv|Cs]
+17.6 +11.2 66 +21  1015.6  0.7  748  281    -2.5       
12 27.05.17 030 (СВ) 20000 м  гроза без осадков{ливн. осадки}  10/8 660 м кучево-дожд., верхняя 
[Cb calv|Cs]
+18.1 +10 59 +19  1015.9  0.3  748  281    -2.6       
15 27.05.17 010 (С) 20000 м    9/8 600 м кучево-дожд., верхняя 
[Cb calv|Ci fib]
+18.3 +8 51 +19  1016.4  0.5  749  281    +2.4       
18 27.05.17 360 (С) 20000 м    9/8 600 м кучево-дожд., средняя, верхняя 
[Cb calv|Ac trans|Ci fib]
+17.6 +9.6 59 +19  1017.4  750  282    +20.7  0.4     
21 27.05.17 010 (С) 19000 м    3/0 верхняя 
[Ci fib]
+13.8 +8.6 71 +15  1019.5  1.8  751  287           
00 28.05.17 тихо ()   13000 м    3/0 верхняя 
[Ci fib]
+10.9 +7.8 81 +11  1020.6  0.9  752  290           
03 28.05.17 250 (З) 11000 м    9/0 верхняя 
[Ci sp]
+9.8 +7.3 84 +11  1021.3  0.6  752  291           
06 28.05.17 360 (С) 20000 м    10/0 верхняя 
[Ci sp]
+17.2 +8 55 +18  1021.4  0.6  752  284  +9.2  +2.5       
09 28.05.17 010 (С) 20000 м    10/5 1000 м верхняя 
[Cu hum|Cs]
+22.2 +3.9 30 +22  1021  -0.1  752  280           
15 28.05.17 010 (С) 20000 м    10/5 600 м верхняя 
[Cu hum|Ci sp]
+24.2 +6.9 33 +24  1019.6  -0.6  751  277           
18 28.05.17 010 (С) 20000 м    5/4 1000 м верхняя 
[Sc|Ci fib]
+21.1 +9.3 47 +21  1020.2  0.4  752  280    +24.9       
21 28.05.17 360 (С) 30000 м    3/0 верхняя 
[Ci fib]
+16.1 +9.6 65 +18  1021.2  0.7  752  285           
00 29.05.17 010 (С) 20000 м    1/0 верхняя 
[Ci fib]
+14.7 +9.7 72 +17  1020.8  -0.5  752  286           
03 29.05.17 тихо ()   11000 м    1/0 верхняя 
[Ci fib]
+12.3 +9.8 85 +13  1020.2  -0.7  751  288           
06 29.05.17 260 (З) 20000 м    1/0 верхняя 
[Ci fib]
+21.4 +10.2 49 +23  1019.1  -0.5  751  279  +12.3  +3.1       
09 29.05.17 270 (З) 20000 м    8/8 800 м кучево-дожд. 
[Cb calv]
+24.9 +7.3 32 +25  1017.3  -1.6  750  276    +4.5       
12 29.05.17 230 (ЮЗ) 20000 м    8/5 1000 м верхняя 
[Cu hum|Ci fib]
+25.9 +7.5 31 +26  1015.4  -1.8  748  274           
15 29.05.17 240 (ЮЗ) 20000 м    8/4 1000 м верхняя 
[Cu Sc|Ci fib]
+26.1 +8.7 33 +26  1013.4  -1.9  747  273           
18 29.05.17 230 (ЮЗ) 20000 м    3/0 верхняя 
[Ci fib]
+22.8 +13.1 54 +28  1012.5  -1.1  746  275    +2.2       
Время (UTC), дата Ветер
(°,м/с) 
Видим.   Явления Облачность Т
(°С)
Тd
(°С)
f(%) Тe
(°С)
Pmin
(гПа)
dP
(гПа)
Po
(мм)
O2
(г/м3)
Тmin Tmax R s Состояние
почвы

Для получения пояснительной информации подведите курсор к названию столбца.

ПОГОДА в Мироновке - архив

Всё, что Вы хотите узнать о погоде в Мироновке - удобно и подробно!

Выберите нужную дату (начиная с 1 января 2015* года) и нажмите кнопку "Найти".
Будут отображены архивные сводки погоды по пункту Мироновка, начиная с указанной даты.


Отображать данные в формате CSV (для использования в таблицах Excel)


Внимание! Наш архив погоды предназначен исключительно для личного некоммерческого использования в познавательных целях. Если Вам необходимы официальные справки о состоянии погоды (для производственных, юридических, коммерческих и т.п. целей), обращайтесь в органы Росгидромета.

*Примечание: данная дата относится к архиву по метеостанциям СССР (Россия, СНГ, Балтия).
Архив по метеостанциям Зарубежной Европы и Азии (кроме Китая) хранится 10 дней, по другим регионам земного шара (Китай, Африка, Америка, Австралия, Океания) - 1 день.

Мироновка - район местоположения метеостанции


Название, широта, долгота, высота метеостанции:
Мироновка 49.7°ш. 31°д. 153 м над ур. моря [Украина]

Дополнительная информация

В oтличие oт бoльшинства пoгoдных сайтoв мы публикуем пoдрoбную метеoинфoрмацию в детальнoм прoфессиoнальнoм фoрмате.

Характеристики температуры и влажнoсти вoздуха измеряются на высoте 2 м в тени вдали oт зданий и деревьев.
Скoрoсть ветра измеряется на высoте 10 м (на урoвне рoста челoвека скoрoсть ветра ниже в 1.5-2 раза). Если метеoстанция нахoдится в гoрoде или в лесу, тo скoрoсть ветра занижена на 2-4 м/с пo сравнению с oткрытым местoм. Скoрoсть ветра над акватoриями крупных рек и oзёр, а также на вершинах хoлмoв на 2-5 м/с выше, чем в oбычных услoвиях.
Атмoсфернoе давление в разных тoчках местнoсти мoжет значительнo oтличаться oт давления на метеoстанции, в зависимoсти oт услoвий рельефа (при пoдъёме на 10 м давление пoнижается примернo на 1 мм рт.ст.).